Flag for Canada Weather past 2 weeks in Saint John, New Brunswick, Canada

Now
59 °F

Passing clouds.


Feels Like: 59 °F
Forecast: 52 / 76 °F
Wind: 2 mph from North

Location: Saint John

Current Time: Jul 30, 2015 at 3:13:26 AM

Latest Report: Jul 30, 2015 at 2:00 AM


Visibility: 15 mi

Pressure: 29.91 "Hg

Humidity: 88%

Dew point: 55 °F

Location of Saint JohnLocation

Historic Weather in Saint John — Graph

°F

Saint John temperature yesterday

Maximum temperature yesterday: 79 °F (at 2:00 PM)
Minimum temperature yesterday: 57 °F (at 4:00 AM)
Average temperature yesterday: 67 °F

Past Weeks' High & Low Weather Summary

 TemperatureHumidityPressure
High79 °F (Jul 29, 2:00 PM)100% (Jul 15, 2:00 AM)30.11 "Hg (Jul 15, 2:00 AM)
Low41 °F (Jul 17, 5:00 AM)34% (Jul 17, 3:00 PM)29.54 "Hg (Jul 22, 7:00 AM)
Average62 °F86%29.88 "Hg
* Reported Jul 15 1:00 AM — Jul 30 1:00 AM, Saint John, Weather by CustomWeather, © 2015

Note: Actual official high and low records may vary slightly from our data, if they occured in-between our weather recording intervals... More about our weather records

Advertising

Saint John weather history for previous 24 hours

 ConditionsComfort  
Time TempWeatherWind HumidityBarometerVisibility
1:00 AM
Thu, Jul 30
59 °FPassing clouds.2 mph88%29.92 "Hg15 mi
12:00 AM59 °FPassing clouds.2 mph88%29.92 "Hg15 mi
11:00 PM
Wed, Jul 29
63 °FPassing clouds.3 mph83%29.91 "Hg15 mi
10:00 PM61 °FPassing clouds.2 mph94%29.90 "Hg15 mi
9:00 PM66 °FBroken clouds.No wind78%29.90 "Hg15 mi
8:00 PM72 °FBroken clouds.3 mph65%29.89 "Hg15 mi
7:00 PM73 °FMild.8 mph57%29.89 "Hg15 mi
6:00 PM77 °FBroken clouds.8 mph54%29.88 "Hg15 mi
5:00 PM77 °FPartly sunny.7 mph57%29.88 "Hg15 mi
4:00 PM79 °FPartly sunny.7 mph54%29.88 "Hg15 mi
3:00 PM79 °FPartly sunny.8 mph54%29.88 "Hg15 mi
2:00 PM79 °FPartly sunny.9 mph51%29.88 "Hg15 mi
1:00 PM77 °FPartly sunny.5 mph54%29.89 "Hg15 mi
12:00 PM77 °FPassing clouds.7 mph51%29.90 "Hg15 mi
11:00 AM73 °FPassing clouds.3 mph65%29.91 "Hg15 mi
10:00 AM68 °FSunny.7 mph83%29.92 "Hg15 mi
9:00 AM63 °FPassing clouds.5 mph100%29.92 "Hg15 mi
8:00 AM59 °FFog.7 mph100%29.92 "Hg1 mi
7:00 AM57 °FFog.3 mph100%29.92 "Hg0 mi
6:00 AM57 °FFog.2 mph100%29.91 "Hg0 mi
5:00 AM57 °FFog.3 mph100%29.90 "Hg0 mi
4:00 AM57 °FFog.6 mph100%29.89 "Hg0 mi
3:00 AM59 °FFog.7 mph100%29.90 "Hg1 mi
Weather by CustomWeather, © 2015

See weather overviewHow to use our weather pages